Back to catalog

STARLINK-37362

AliveCommunicationsVLEO
NORAD 68974·PAYLOAD·🇺🇸 United States

Launched May 1, 2026 from Cape Canaveral Space Force Station

Loading…

Next Passes (next 24 hours)

TLE

FreshSource: CelesTrak SupGP

Epoch: Sep 14, 2026, 22:54 UTC

1 68974C 26099Z   26257.95465278  .00025576  00000+0  75575-3 0  2571
2 68974  53.1564 101.4769 0001271  86.2852  14.1126 15.34374074    14

Track STARLINK-37362 in real time with AllMySat

Download on the App Store